Location: Chevoux
(46.3801°N, 4.9476°E)
Time: 08:43:57
(UTC+00:00)

Cosmos 44 Rocket - Visible Passes

Search period start: 09 May 2021 00:00
Search period end: 19 May 2021 00:00
Orbit: 636 x 754 km, 65.1° (Epoch: 08 May)

Date Brightness Start Highest point End Pass type
(mag) Time Alt. Az. Time Alt. Az. Time Alt. Az.
09 May 3.7 00:41:57 10° NNW 00:47:11 67° NE 00:49:28 33° SE visible
09 May 4.7 02:24:27 10° WNW 02:28:06 21° WSW 02:28:06 21° WSW visible
09 May 6.2 22:01:45 10° N 22:04:00 13° NNE 22:06:15 10° NE visible
09 May 4.9 23:42:20 10° NNW 23:47:09 35° NE 23:50:23 18° E visible
10 May 3.7 01:23:52 10° NW 01:28:51 46° WSW 01:29:02 46° SW visible
10 May 5.7 22:42:54 10° NNW 22:46:49 21° NNE 22:50:42 10° E visible
11 May 3.4 00:23:55 10° NW 00:29:11 83° NE 00:30:09 60° SE visible
11 May 5.2 02:06:56 10° WNW 02:08:48 15° W 02:08:48 15° W visible
11 May 6.1 21:43:34 10° N 21:46:15 14° NNE 21:48:55 10° NE visible
11 May 4.5 23:24:15 10° NNW 23:29:14 41° NE 23:31:23 28° E visible
12 May 4.2 01:05:59 10° NW 01:10:04 35° W 01:10:04 35° W visible
12 May 6.3 20:44:32 10° N 20:45:29 10° N 20:46:25 10° NNE visible
12 May 5.4 22:24:46 10° NNW 22:28:59 24° NE 22:32:45 12° E visible
13 May 3.2 00:05:54 10° NW 00:11:09 80° SW 00:11:25 77° SSW visible
13 May 5.6 01:49:46 10° W 01:50:05 11° W 01:50:05 11° W visible
13 May 5.9 21:25:24 10° N 21:28:29 15° NNE 21:31:32 10° ENE visible
13 May 4.1 23:06:11 10° NNW 23:11:17 50° NE 23:12:51 37° E visible
14 May 4.7 00:48:10 10° NW 00:51:32 26° W 00:51:32 26° W visible
14 May 6.1 20:26:14 10° N 20:27:46 11° NNE 20:29:18 10° NNE visible
14 May 5.1 22:06:39 10° NNW 22:11:08 28° NE 22:14:21 15° E visible
14 May 3.4 23:47:55 10° NW 23:53:02 64° WSW 23:53:02 64° WSW visible
15 May 5.8 21:07:15 10° NNW 21:10:42 17° NNE 21:14:07 10° ENE visible
15 May 3.7 22:48:06 10° NNW 22:53:19 61° NE 22:54:36 46° ESE visible
16 May 5.0 00:30:26 10° WNW 00:33:17 21° W 00:33:17 21° W visible
16 May 6.0 20:08:00 10° N 20:10:02 12° NNE 20:12:04 10° NE visible
16 May 4.8 21:48:32 10° NNW 21:53:15 32° NE 21:56:12 19° E visible
16 May 3.7 23:29:58 10° NW 23:34:54 50° WSW 23:34:54 50° WSW visible
17 May 5.5 20:49:06 10° NNW 20:52:53 20° NNE 20:56:38 10° ENE visible
17 May 3.4 22:30:04 10° NW 22:35:20 76° NE 22:36:34 52° ESE visible
18 May 5.3 00:12:51 10° WNW 00:15:15 17° W 00:15:15 17° W visible
18 May 5.9 19:49:48 10° N 19:52:17 13° NNE 19:54:45 10° NE visible
18 May 4.5 21:30:26 10° NNW 21:35:20 38° NE 21:38:16 21° E visible
18 May 4.0 23:12:05 10° NW 23:16:56 40° WSW 23:16:57 40° WSW visible
